Tracking 34305 objects as of 6-Jun-2026
HD Live streaming from Space Station
objects crossing your sky now

STARLINK-37644

Track STARLINK-37644 now!
10-day predictions
STARLINK-37644 is classified as:


NORAD ID: 69042
Int'l Code: 2026-101T
Perigee: 425.6 km
Apogee: 426.8 km
Inclination: 97.3 °
Period: 93.0 minutes
Semi major axis: 6797 km
RCS: Unknown
Launch date: May 6, 2026
Source: United States (US)
Launch site: AIR FORCE WESTERN TEST RANGE (AFWTR)
Your satellite tracking list
Your tracking list is empty




NASA's NSSDC Master Catalog

Two Line Element Set (TLE):
1 69042U 26101T   26156.33999011  .00040495  00000-0  74221-3 0  9997
2 69042  97.2842  11.3030 0000914 108.0868 252.0483 15.49196853  4759
Source of the keplerian elements: AFSPC